ANIK F3

Last updated on Sun Apr 12 2026 00:02:51 GMT+0000 (Coordinated Universal Time)

1 31102U 07009A 26101.49720396 .00000001 00000+0 00000+0 0 9992 2 31102 1.0238 84.5974 0002781 299.8578 235.5446 1.00272446 45897
UTC large
Height (km)
Speed (km/s)
/
Latitude / Longitude
Inclination (degrees)
Orbital Period (minutes)
Azimuth
Elevation
Range (km)
Doppler Factor

Next 0 passes for location: London (51.5072 / 0.1276)

Sorry there are no passes over London.